Change the Weather History Date:

Saturday, December 8, 2012

  Actual Average Record
Temperature  
Mean Temperature 48 °F -  
Max Temperature 68 °F 55 °F 78 °F (1970)
Min Temperature 28 °F 27 °F -4 °F (2005)
Degree Days  
Heating Degree Days 17    
Moisture  
Dew Point 20 °F    
Average Humidity 39    
Maximum Humidity 69    
Minimum Humidity 13    
Precipitation  
Precipitation 0.00 in - - ()
Sea Level Pressure  
Sea Level Pressure 29.75 in    
Wind  
Wind Speed 10 mph (West)    
Max Wind Speed 31 mph    
Max Gust Speed 40 mph    
Visibility 10 miles    
Events      
Averages and records for this station are not official NWS values.
T = Trace of Precipitation, MM = Missing Value Source: NWS Daily Summary

Daily Weather History Graph

Daily Weather History Graph

Search for Another Location

Airport or City:

Trip Planner

Search our weather history database for the weather conditions in past years. The results will help you decide how hot, cold, wet, or windy it might be!

Date:

Astronomy

Dec. 08, 2012 Rise Set
Actual Time 6:50 AM MST 4:42 PM MST
Civil Twilight 6:22 AM MST 5:10 PM MST
Nautical Twilight 5:51 AM MST 5:41 PM MST
Astronomical Twilight 5:20 AM MST 6:12 PM MST
Moon 1:27 AM MST (12/8) 1:05 PM MST (12/8)
Length of Visible Light 10h 47m
Length of Day
9h 51m
Waning Crescent, 27% of the Moon is Illuminated
Dec 8
Waning Crescent
Dec 13
New
Dec 19
First Quarter
Dec 28
Full
Jan 4
Last Quarter

Hourly Weather History & Observations

Time (MST) Temp. Windchill Dew Point Humidity Pressure Visibility Wind Dir Wind Speed Gust Speed Precip Events Conditions
12:53 AM 37.9 °F 31.5 °F 21.9 °F 53% 29.84 in 10.0 mi NNE 9.2 mph - N/A   Clear
1:53 AM 35.1 °F 31.0 °F 21.9 °F 59% 29.86 in 10.0 mi North 4.6 mph - N/A   Clear
2:53 AM 33.1 °F 27.7 °F 21.9 °F 64% 29.85 in 10.0 mi North 5.8 mph - N/A   Clear
3:53 AM 32.0 °F - 21.9 °F 66% 29.85 in 10.0 mi Calm Calm - N/A   Clear
4:53 AM 30.0 °F 23.2 °F 19.9 °F 66% 29.88 in 10.0 mi NW 6.9 mph - N/A   Clear
5:53 AM 28.9 °F 21.9 °F 19.0 °F 67% 29.90 in 10.0 mi NW 6.9 mph - N/A   Clear
6:53 AM 28.9 °F 21.9 °F 19.9 °F 69% 29.89 in 10.0 mi North 6.9 mph - N/A   Partly Cloudy
7:53 AM 30.9 °F - 19.9 °F 64% 29.90 in 10.0 mi Calm Calm - N/A   Clear
8:53 AM 37.9 °F - 24.1 °F 57% 29.86 in 10.0 mi Calm Calm - N/A   Clear
9:53 AM 41.0 °F 39.0 °F 25.0 °F 53% 29.85 in 10.0 mi WSW 3.5 mph - N/A   Clear
10:53 AM 46.9 °F - 26.1 °F 44% 29.81 in 10.0 mi SW 6.9 mph - N/A   Clear
11:53 AM 55.0 °F - 26.1 °F 33% 29.72 in 10.0 mi West 6.9 mph - N/A   Clear
12:53 PM 66.9 °F - 23.0 °F 19% 29.63 in 10.0 mi WSW 21.9 mph 28.8 mph N/A   Clear
1:53 PM 68.0 °F - 19.0 °F 15% 29.60 in 10.0 mi SW 25.3 mph 35.7 mph N/A   Clear
2:53 PM 68.0 °F - 18.0 °F 15% 29.60 in 10.0 mi WSW 28.8 mph 40.3 mph N/A   Clear
3:53 PM 66.0 °F - 14.0 °F 13% 29.61 in 10.0 mi West 31.1 mph 39.1 mph N/A   Clear
4:53 PM 62.1 °F - 19.0 °F 19% 29.63 in 10.0 mi WSW 17.3 mph - N/A   Clear
5:53 PM 60.1 °F - 16.0 °F 18% 29.66 in 10.0 mi WSW 17.3 mph 23.0 mph N/A   Clear
6:53 PM 57.9 °F - 18.0 °F 21% 29.65 in 10.0 mi West 24.2 mph 29.9 mph N/A   Clear
7:53 PM 57.0 °F - 19.0 °F 23% 29.67 in 10.0 mi West 23.0 mph 29.9 mph N/A   Clear
8:53 PM 57.0 °F - 19.0 °F 23% 29.67 in 10.0 mi West 18.4 mph 25.3 mph N/A   Clear
9:53 PM 54.0 °F - 18.0 °F 24% 29.68 in 10.0 mi West 15.0 mph - N/A   Clear
10:53 PM 48.0 °F - 17.1 °F 29% 29.70 in 10.0 mi WNW 9.2 mph - N/A   Clear
11:53 PM 52.0 °F - 17.1 °F 25% 29.67 in 10.0 mi West 16.1 mph - N/A   Clear